When you browse on this site, cookies collect data to enhance your experience and personalize the content and advertising you see.
Visit our Privacy Policy to learn more. By continuing to use the site, you agree to this use of cookies and data.
  • In Austria
  • List of Countries
  • For 7 days
  • Water Temperature
  • Satellite Maps
  • Weather Map
  • News
  • Weather Widgets
  • user-avatar
    Login

    Hourly Weather El Quseir

    Today, 24 April, Wednesday

    Time Temperature Precipitation Wind Pressure Humidity
    00:00 +24°C° 0 mm 8 mps 761 mmHg 21%
    01:00 +23°C° 0 mm 8 mps 761 mmHg 22%
    02:00 +23°C° 0 mm 8 mps 761 mmHg 24%
    03:00 +22°C° 0 mm 9 mps 761 mmHg 26%
    04:00 +22°C° 0 mm 9 mps 761 mmHg 28%
    05:00 +22°C° 0 mm 9 mps 761 mmHg 30%
    06:00 +23°C° 0 mm 9 mps 761 mmHg 27%
    07:00 +26°C° 0 mm 9 mps 762 mmHg 24%
    08:00 +28°C° 0 mm 9 mps 762 mmHg 22%
    09:00 +29°C° 0 mm 8 mps 762 mmHg 21%
    10:00 +31°C° 0 mm 8 mps 762 mmHg 19%
    11:00 +31°C° 0 mm 8 mps 762 mmHg 18%
    12:00 +32°C° 0 mm 7 mps 761 mmHg 17%
    13:00 +33°C° 0 mm 7 mps 761 mmHg 16%
    14:00 +33°C° 0 mm 7 mps 761 mmHg 15%
    15:00 +33°C° 0 mm 6 mps 760 mmHg 15%
    16:00 +33°C° 0 mm 6 mps 760 mmHg 15%
    17:00 +33°C° 0 mm 6 mps 760 mmHg 15%
    18:00 +32°C° 0 mm 6 mps 760 mmHg 17%
    19:00 +30°C° 0 mm 6 mps 760 mmHg 20%
    20:00 +29°C° 0 mm 6 mps 760 mmHg 22%
    21:00 +28°C° 0 mm 6 mps 760 mmHg 21%
    22:00 +28°C° 0 mm 6 mps 760 mmHg 21%
    23:00 +28°C° 0 mm 6 mps 760 mmHg 20%

    Tomorrow, 25 April, Thursday

    Time Temperature Precipitation Wind Pressure Humidity
    00:00 +27°C° 0 mm 7 mps 760 mmHg 21%
    01:00 +27°C° 0 mm 8 mps 759 mmHg 23%
    02:00 +27°C° 0 mm 8 mps 759 mmHg 24%
    03:00 +26°C° 0 mm 8 mps 759 mmHg 27%
    04:00 +26°C° 0 mm 8 mps 759 mmHg 29%
    05:00 +24°C° 0 mm 9 mps 759 mmHg 31%
    06:00 +27°C° 0 mm 9 mps 759 mmHg 28%
    07:00 +28°C° 0 mm 9 mps 759 mmHg 24%
    08:00 +31°C° 0 mm 9 mps 760 mmHg 20%
    09:00 +32°C° 0 mm 8 mps 760 mmHg 19%
    10:00 +33°C° 0 mm 8 mps 760 mmHg 17%
    11:00 +35°C° 0 mm 8 mps 760 mmHg 16%
    12:00 +35°C° 0 mm 8 mps 759 mmHg 15%
    13:00 +35°C° 0 mm 8 mps 758 mmHg 14%
    14:00 +36°C° 0 mm 7 mps 758 mmHg 13%
    15:00 +35°C° 0 mm 7 mps 757 mmHg 14%
    16:00 +35°C° 0 mm 7 mps 757 mmHg 14%
    17:00 +35°C° 0 mm 7 mps 757 mmHg 14%
    18:00 +34°C° 0 mm 6 mps 757 mmHg 15%
    19:00 +33°C° 0 mm 6 mps 757 mmHg 16%
    20:00 +30°C° 0 mm 6 mps 757 mmHg 18%
    21:00 +30°C° 0 mm 6 mps 757 mmHg 18%
    22:00 +30°C° 0 mm 6 mps 757 mmHg 18%
    23:00 +29°C° 0 mm 6 mps 757 mmHg 18%

    Day after tomorrow, 26 April, Friday

    Time Temperature Precipitation Wind Pressure Humidity
    00:00 +29°C° 0 mm 7 mps 757 mmHg 19%
    01:00 +28°C° 0 mm 8 mps 757 mmHg 20%
    02:00 +28°C° 0 mm 8 mps 756 mmHg 21%
    03:00 +27°C° 0 mm 9 mps 756 mmHg 24%
    04:00 +26°C° 0 mm 9 mps 756 mmHg 26%
    05:00 +26°C° 0 mm 9 mps 756 mmHg 28%
    06:00 +28°C° 0 mm 9 mps 756 mmHg 25%
    07:00 +29°C° 0 mm 9 mps 757 mmHg 21%
    08:00 +32°C° 0 mm 9 mps 757 mmHg 17%
    09:00 +33°C° 0 mm 9 mps 757 mmHg 16%
    10:00 +34°C° 0 mm 9 mps 757 mmHg 15%
    11:00 +35°C° 0 mm 9 mps 757 mmHg 14%
    12:00 +37°C° 0 mm 8 mps 757 mmHg 14%
    13:00 +37°C° 0 mm 8 mps 756 mmHg 13%
    14:00 +38°C° 0 mm 8 mps 755 mmHg 13%
    15:00 +37°C° 0 mm 8 mps 755 mmHg 14%
    16:00 +35°C° 0 mm 7 mps 755 mmHg 15%
    17:00 +35°C° 0 mm 7 mps 754 mmHg 15%
    18:00 +34°C° 0 mm 7 mps 755 mmHg 18%
    19:00 +32°C° 0 mm 7 mps 755 mmHg 20%
    20:00 +30°C° 0 mm 7 mps 755 mmHg 22%
    21:00 +31°C° 0 mm 8 mps 755 mmHg 22%
    22:00 +29°C° 0 mm 8 mps 756 mmHg 22%
    23:00 +29°C° 0 mm 8 mps 756 mmHg 21%

    27 April, Saturday

    Time Temperature Precipitation Wind Pressure Humidity
    00:00 +28°C° 0 mm 8 mps 755 mmHg 23%
    01:00 +28°C° 0 mm 8 mps 755 mmHg 24%
    02:00 +27°C° 0 mm 8 mps 755 mmHg 26%
    03:00 +27°C° 0 mm 8 mps 755 mmHg 27%
    04:00 +26°C° 0 mm 8 mps 755 mmHg 28%
    05:00 +24°C° 0 mm 8 mps 755 mmHg 30%
    06:00 +27°C° 0 mm 8 mps 755 mmHg 27%
    07:00 +28°C° 0 mm 8 mps 755 mmHg 24%
    08:00 +31°C° 0 mm 9 mps 756 mmHg 21%
    09:00 +32°C° 0 mm 8 mps 756 mmHg 20%
    10:00 +33°C° 0 mm 8 mps 756 mmHg 19%
    11:00 +34°C° 0 mm 8 mps 756 mmHg 18%
    12:00 +35°C° 0 mm 8 mps 755 mmHg 18%
    13:00 +35°C° 0 mm 8 mps 755 mmHg 18%
    14:00 +36°C° 0 mm 7 mps 755 mmHg 18%
    15:00 +35°C° 0 mm 7 mps 755 mmHg 18%
    16:00 +35°C° 0 mm 7 mps 754 mmHg 19%
    17:00 +34°C° 0 mm 7 mps 754 mmHg 19%
    18:00 +33°C° 0 mm 7 mps 755 mmHg 21%
    19:00 +32°C° 0 mm 7 mps 755 mmHg 23%
    20:00 +30°C° 0 mm 6 mps 756 mmHg 24%
    21:00 +30°C° 0 mm 7 mps 756 mmHg 24%
    22:00 +29°C° 0 mm 7 mps 756 mmHg 23%
    23:00 +29°C° 0 mm 7 mps 756 mmHg 23%

    28 April, Sunday

    Time Temperature Precipitation Wind Pressure Humidity
    00:00 +29°C° 0 mm 7 mps 756 mmHg 23%
    01:00 +28°C° 0 mm 7 mps 756 mmHg 24%
    02:00 +28°C° 0 mm 7 mps 755 mmHg 25%
    03:00 +27°C° 0 mm 7 mps 756 mmHg 26%
    04:00 +26°C° 0 mm 7 mps 756 mmHg 27%
    05:00 +26°C° 0 mm 7 mps 756 mmHg 28%
    06:00 +28°C° 0 mm 7 mps 756 mmHg 24%
    07:00 +29°C° 0 mm 7 mps 757 mmHg 21%
    08:00 +32°C° 0 mm 7 mps 757 mmHg 18%
    09:00 +33°C° 0 mm 7 mps 757 mmHg 17%
    10:00 +34°C° 0 mm 7 mps 757 mmHg 16%
    11:00 +36°C° 0 mm 6 mps 757 mmHg 16%
    12:00 +36°C° 0 mm 6 mps 757 mmHg 16%
    13:00 +36°C° 0 mm 6 mps 756 mmHg 16%
    14:00 +37°C° 0 mm 5 mps 756 mmHg 17%
    15:00 +36°C° 0 mm 5 mps 756 mmHg 18%
    16:00 +35°C° 0 mm 4 mps 755 mmHg 20%
    17:00 +35°C° 0 mm 3 mps 755 mmHg 21%
    18:00 +34°C° 0 mm 3 mps 756 mmHg 22%
    19:00 +33°C° 0 mm 3 mps 756 mmHg 24%
    20:00 +31°C° 0 mm 3 mps 757 mmHg 25%
    21:00 +30°C° 0 mm 3 mps 757 mmHg 24%
    22:00 +30°C° 0 mm 3 mps 757 mmHg 23%
    23:00 +29°C° 0 mm 4 mps 757 mmHg 22%

    29 April, Monday

    Time Temperature Precipitation Wind Pressure Humidity
    00:00 +29°C° 0 mm 4 mps 757 mmHg 22%
    01:00 +28°C° 0 mm 4 mps 756 mmHg 22%
    02:00 +27°C° 0 mm 4 mps 756 mmHg 22%
    03:00 +27°C° 0 mm 4 mps 756 mmHg 22%
    04:00 +27°C° 0 mm 5 mps 757 mmHg 22%
    05:00 +26°C° 0 mm 5 mps 757 mmHg 22%
    06:00 +28°C° 0 mm 5 mps 757 mmHg 20%
    07:00 +30°C° 0 mm 5 mps 757 mmHg 18%
    08:00 +33°C° 0 mm 5 mps 758 mmHg 16%
    09:00 +34°C° 0 mm 5 mps 757 mmHg 15%
    10:00 +36°C° 0 mm 5 mps 757 mmHg 14%
    11:00 +37°C° 0 mm 5 mps 757 mmHg 14%
    12:00 +37°C° 0 mm 5 mps 757 mmHg 13%
    13:00 +39°C° 0 mm 5 mps 756 mmHg 13%
    14:00 +39°C° 0 mm 5 mps 756 mmHg 13%
    15:00 +37°C° 0 mm 5 mps 755 mmHg 13%
    16:00 +37°C° 0 mm 4 mps 755 mmHg 14%
    17:00 +36°C° 0 mm 4 mps 755 mmHg 15%
    18:00 +35°C° 0 mm 3 mps 755 mmHg 16%
    19:00 +33°C° 0 mm 3 mps 756 mmHg 18%
    20:00 +31°C° 0 mm 3 mps 756 mmHg 20%
    21:00 +31°C° 0 mm 3 mps 756 mmHg 19%
    22:00 +30°C° 0 mm 3 mps 756 mmHg 18%
    23:00 +30°C° 0 mm 4 mps 756 mmHg 18%
    Show more